Wind_Speed
62 64 66 69 71 73 75 77 79 80 81 83 84 83 82 80 78 76 75 74 73 72 71 70 69 68 68 67 66 66 65 64 64 63 62 62 62 63 63 64 65 67 68 70 71 73 75 75 76 76 75 74 72 70 69 67 66 66 65 65 65 67 71 71 69 68 69 70 69 69 68 68 68 67 67 68 66 63 60 58 57 56 54 50 46
64 67 69 71 72 74 77 79 80 81 81 81 80 78 76 75 74 73 72 71 70 69 69 68 67 67 66 65 64 64 64 63 62 62 61 61 61 61 62 62 63 65 67 69 71 72 74 75 75 77 78 78 77 75 73 71 70 69 68 67 67 68 70 72 72 69 69 70 71 71 70 71 70 69 67 66 67 66 64 62 60 58 57 54 51
66 69 71 73 75 76 78 78 78 77 77 76 74 73 72 71 70 69 69 68 67 66 66 65 64 64 63 63 62 62 61 61 60 60 59 59 59 59 60 61 61 63 64 66 69 70 72 73 74 76 77 78 80 79 78 76 74 73 71 70 69 68 70 73 74 72 70 70 71 72 72 72 72 72 70 67 66 66 67 66 63 61 60 58 55
68 70 72 74 74 74 74 73 73 72 71 70 69 69 68 68 67 67 66 65 64 64 63 63 62 62 61 61 60 60 60 59 59 59 58 58 58 58 58 59 60 61 62 64 66 68 70 72 73 75 76 77 79 81 81 80 78 77 75 74 72 70 70 73 75 75 73 72 72 72 73 74 74 74 73 71 68 66 67 69 67 64 62 61 59
69 70 70 70 69 69 69 68 68 67 66 66 66 66 66 65 65 64 63 63 62 62 62 61 60 60 59 59 58 58 57 57 57 57 57 56 57 57 57 57 58 59 60 62 64 66 68 70 72 74 75 77 78 80 81 82 82 80 79 77 76 74 72 73 75 77 76 75 73 72 72 73 74 75 74 74 71 68 67 69 70 67 65 64 63
66 66 65 65 65 65 64 64 64 64 64 64 64 64 63 63 63 62 62 61 61 60 59 58 58 57 56 55 55 54 53 53 53 53 53 53 54 54 55 56 57 57 59 60 62 64 65 67 70 71 74 76 78 79 81 82 83 83 83 82 80 77 75 74 75 77 79 78 76 74 73 73 73 74 74 74 74 71 68 69 70 68 65 65 66
61 61 61 61 61 61 60 60 61 62 62 62 62 61 61 61 61 60 59 58 57 57 56 55 54 53 52 52 51 50 49 49 48 48 49 49 50 51 51 52 54 55 57 58 60 62 63 65 67 69 71 74 76 78 80 81 83 84 85 85 84 81 79 77 76 77 79 80 79 77 75 74 72 73 74 74 74 73 71 70 71 70 65 63 67
58 58 58 57 57 57 58 59 59 60 60 59 59 59 59 58 57 57 56 55 54 53 52 51 50 49 48 48 47 46 45 44 44 44 44 45 45 46 47 48 50 51 53 55 57 60 62 63 65 67 69 72 74 77 79 80 82 84 86 87 87 86 83 80 79 78 79 81 82 80 78 76 74 74 74 74 74 74 73 71 73 73 68 63 65
55 55 54 54 55 56 56 57 57 57 57 57 57 57 56 56 55 54 53 51 50 49 47 46 45 44 44 43 42 41 41 40 40 40 40 41 41 42 43 44 45 47 49 50 53 56 59 61 64 65 67 69 72 74 77 79 81 83 85 87 89 89 87 84 82 81 80 81 82 82 81 79 77 75 75 75 75 75 75 74 74 76 74 66 64
52 52 52 53 53 54 55 55 55 55 55 55 55 55 54 53 52 51 50 48 46 44 42 41 40 39 38 38 37 36 36 36 36 37 37 37 37 38 38 39 40 42 44 46 48 51 54 57 61 63 66 67 70 72 75 78 80 82 85 87 90 92 91 88 86 84 82 81 82 84 83 82 79 77 76 76 77 76 76 76 75 78 79 72 66
50 51 51 51 52 52 53 53 53 54 54 54 54 53 52 51 50 49 48 45 43 41 39 37 35 34 33 32 31 31 32 33 33 33 34 34 34 34 35 35 36 38 39 41 44 46 49 52 56 60 63 65 68 70 72 75 78 81 83 86 89 92 93 92 89 87 85 83 83 84 85 85 83 80 79 78 78 78 77 78 77 78 81 79 72
49 50 50 50 51 51 51 51 52 52 53 53 52 52 51 50 49 48 46 44 42 39 37 34 32 30 29 28 28 29 30 31 31 32 32 32 32 32 32 32 33 34 35 37 39 41 44 47 50 54 58 62 65 68 70 73 76 79 82 85 88 91 94 95 93 90 88 86 85 84 85 87 86 83 82 80 80 79 79 79 78 78 82 83 77
48 48 48 49 49 49 50 50 51 51 52 52 51 50 50 49 49 47 46 44 41 39 36 34 31 29 28 27 27 28 29 30 31 31 31 30 30 30 30 30 30 31 31 32 34 37 39 42 45 49 52 56 60 64 67 70 73 76 80 83 86 90 93 96 96 94 92 90 88 86 86 87 88 86 84 82 82 81 80 80 80 79 82 85 82
47 47 47 48 48 48 49 49 50 50 50 51 50 50 49 49 49 48 47 44 42 40 37 35 33 30 29 28 27 28 28 29 29 29 29 29 28 28 28 29 29 29 29 29 31 33 35 38 41 44 47 51 55 59 63 67 71 74 78 81 85 88 92 95 98 98 95 93 91 89 88 88 89 89 87 85 84 84 83 82 81 80 82 87 86
46 46 46 47 47 47 48 48 48 49 49 49 49 49 49 49 49 49 48 46 44 42 40 37 35 33 31 30 29 29 28 28 29 28 28 27 27 26 26 26 27 27 28 28 28 30 32 34 37 40 43 46 50 54 58 62 67 71 75 79 83 87 90 93 97 99 99 97 94 92 90 89 90 91 90 89 87 86 85 84 83 82 83 86 89
45 46 46 46 46 47 47 47 48 48 48 48 48 48 49 49 49 49 49 48 47 45 43 40 37 35 33 32 31 30 30 29 29 28 27 26 25 25 25 24 25 25 26 26 27 28 30 32 34 37 40 42 45 49 52 56 61 65 70 75 79 84 88 91 95 99 101 100 98 96 94 92 91 92 93 92 90 88 88 87 85 84 84 86 90
44 45 45 46 46 46 47 47 47 48 47 47 47 47 48 49 49 49 50 49 48 47 45 43 40 38 35 34 33 32 31 31 30 29 28 27 25 24 24 23 23 23 23 24 26 27 29 31 32 34 37 39 42 45 48 51 55 59 64 70 75 80 85 89 93 97 100 102 101 99 97 95 93 93 94 95 93 91 90 89 89 87 86 86 90
43 44 44 45 45 46 47 47 48 48 47 46 46 46 46 47 48 49 50 50 49 48 47 46 43 41 39 37 35 34 33 32 31 30 29 28 26 25 24 23 22 21 21 22 24 26 28 30 31 32 35 37 39 41 44 46 50 54 58 63 69 75 81 86 90 94 98 102 104 102 100 98 96 95 95 96 96 94 92 92 91 90 89 88 90
43 43 44 44 45 46 47 47 48 48 47 46 45 45 45 46 47 47 48 49 49 48 48 47 46 44 42 40 38 37 36 34 33 31 30 29 27 25 25 24 23 21 20 20 21 24 26 29 30 31 33 35 37 39 41 43 46 49 53 58 63 69 75 81 87 91 95 99 103 105 103 101 99 98 96 97 98 98 95 94 93 93 92 91 91
42 42 43 44 44 45 46 47 47 47 47 46 45 44 44 44 45 46 47 48 48 48 48 48 47 46 44 42 41 40 38 37 35 33 31 29 28 26 24 24 23 22 20 19 19 21 23 26 29 31 32 33 35 37 39 40 43 46 49 53 58 63 69 75 82 87 92 96 101 105 106 105 103 101 99 98 99 100 99 97 95 95 95 94 93
41 41 42 43 44 45 46 46 47 47 47 46 45 44 43 43 43 44 45 46 47 48 48 49 49 48 47 45 43 42 41 39 37 34 31 29 28 26 24 23 23 23 22 20 19 19 21 23 26 29 31 32 34 35 37 39 40 43 46 50 53 57 63 69 76 82 88 93 97 102 106 107 106 104 102 101 100 101 101 100 97 96 96 96 96
40 41 41 42 43 44 45 46 46 47 47 46 45 43 43 42 42 43 44 45 46 47 47 48 49 49 48 47 46 45 43 42 39 36 32 29 28 26 24 22 22 23 23 22 20 19 18 20 23 26 29 31 33 34 36 37 39 41 43 46 50 53 57 63 69 76 82 89 94 98 103 107 109 107 105 104 102 102 103 103 101 99 98 98 98
39 40 41 41 42 43 44 45 46 46 46 46 45 43 42 41 41 41 42 43 45 46 46 47 48 49 49 49 48 47 45 43 41 38 34 31 28 26 24 23 22 22 23 24 23 21 19 18 19 22 25 28 31 33 35 36 38 39 41 44 47 50 54 57 63 69 76 83 90 95 99 104 109 110 108 107 105 104 104 105 104 103 101 100 101
39 39 40 40 41 42 43 44 45 46 46 45 44 43 41 41 40 40 41 42 43 45 45 46 47 48 49 49 49 48 47 44 42 40 37 33 30 27 25 24 23 23 24 24 24 24 23 21 20 20 22 25 28 31 33 35 36 37 39 42 44 47 50 54 58 63 69 76 84 91 96 100 106 110 111 110 108 107 106 106 106 106 104 102 102
38 39 39 40 40 41 42 43 44 44 45 44 43 42 41 40 39 39 40 41 43 44 45 46 46 47 49 49 49 48 47 46 43 41 39 35 32 29 27 26 26 26 26 25 24 24 24 24 23 20 20 21 24 28 31 33 35 36 37 39 42 44 47 51 54 59 64 70 77 84 91 97 101 107 111 112 111 109 108 107 107 108 108 106 104
38 38 39 39 39 40 41 42 43 43 43 43 42 41 40 39 38 38 39 41 42 43 44 45 46 46 47 48 48 48 47 46 44 42 40 38 35 33 31 29 29 28 28 28 27 26 25 24 24 23 21 19 21 24 27 30 33 36 36 37 39 41 43 47 51 55 60 65 71 78 85 92 98 102 108 112 114 112 111 110 109 109 110 110 107
37 38 38 39 39 39 40 41 42 42 42 42 41 40 39 38 37 37 38 39 41 43 44 44 45 45 45 46 47 46 45 45 44 42 41 39 38 36 34 33 32 31 31 30 29 28 27 25 25 25 23 21 19 21 24 27 30 33 36 36 37 38 40 43 47 52 56 61 66 72 78 86 93 98 103 109 114 115 114 112 111 111 111 112 111
37 38 38 38 38 39 40 40 41 41 42 41 40 39 39 38 37 36 36 38 40 42 43 44 44 44 44 44 45 45 44 43 43 42 41 40 39 38 37 36 35 34 33 33 32 31 29 27 27 26 25 23 21 19 20 23 26 30 33 36 36 37 38 40 43 47 52 57 62 67 73 79 86 93 99 105 110 115 116 115 113 113 112 113 114
36 37 38 38 38 39 39 40 40 41 41 41 40 38 38 37 37 36 36 36 38 40 42 43 44 44 43 42 43 43 42 42 42 42 41 41 40 40 39 38 37 36 35 35 34 33 32 29 28 28 26 24 22 19 18 20 23 26 30 34 36 36 37 38 40 43 48 53 58 63 68 73 79 86 94 100 106 111 116 118 116 115 114 114 115
36 37 38 38 39 39 39 39 40 40 40 40 39 38 37 37 36 36 36 36 37 39 41 42 43 43 42 41 41 41 41 40 40 41 41 41 41 41 42 41 41 40 38 37 37 36 34 32 30 29 28 26 23 20 18 18 20 23 26 30 34 36 36 37 37 39 43 48 53 58 63 69 74 80 87 94 101 107 112 117 119 118 116 116 116
36 36 37 38 39 39 39 39 40 40 40 39 39 38 36 36 35 35 34 35 37 39 40 41 42 42 41 40 39 39 39 39 39 39 40 42 42 43 44 44 44 44 43 41 39 38 37 35 32 30 29 27 24 21 18 16 17 20 23 26 31 35 36 36 37 37 39 43 47 53 58 63 69 74 80 87 94 101 107 113 118 120 119 118 117
36 36 37 37 38 39 39 39 40 40 39 38 37 37 36 35 34 33 33 34 35 37 39 40 40 40 40 39 38 37 37 38 38 39 40 41 42 43 44 45 46 46 46 45 43 41 39 38 35 32 30 28 25 22 19 16 15 17 20 23 27 33 36 37 37 37 37 39 42 47 52 58 63 69 74 80 86 94 101 108 114 119 121 121 119
36 36 36 37 37 38 39 39 39 39 39 38 36 35 35 34 33 32 32 33 34 36 38 39 40 40 39 39 37 36 36 37 38 39 40 41 43 43 44 45 46 47 48 48 46 44 42 40 38 35 32 29 26 23 20 17 15 15 17 20 24 29 34 36 37 37 37 37 39 42 47 52 57 63 68 74 79 86 94 101 108 114 119 122 122
36 36 36 36 37 38 38 38 38 38 38 37 35 34 33 32 32 31 31 32 33 36 38 39 39 39 39 39 38 36 36 36 37 38 39 41 43 44 44 45 46 47 48 49 48 47 45 42 40 38 35 32 29 25 21 18 16 14 15 17 21 26 31 35 37 37 37 37 38 39 42 47 51 56 62 67 73 79 85 93 100 107 113 119 122
35 36 36 36 36 37 37 37 37 37 36 35 34 33 32 31 31 30 30 31 32 34 36 37 38 38 38 38 38 37 36 37 37 38 39 41 42 43 45 45 46 47 48 48 49 49 47 45 42 40 38 35 32 28 23 19 17 16 15 16 19 23 28 33 36 37 37 37 37 38 39 42 46 50 55 60 66 72 77 84 91 98 106 112 118
34 35 36 36 36 36 36 36 36 35 35 34 32 31 31 30 30 30 30 30 31 32 33 34 35 35 35 36 37 37 37 37 37 38 39 40 42 43 43 44 45 46 46 47 48 49 49 47 45 42 39 37 35 32 27 22 18 16 15 16 18 21 25 30 34 37 38 37 37 37 38 39 41 45 49 54 59 65 70 76 82 89 96 103 111
33 34 35 35 36 35 35 35 34 34 33 32 31 30 29 29 29 28 29 29 30 31 32 32 32 33 33 34 35 36 37 37 37 38 39 40 42 43 43 44 45 45 46 47 48 48 49 48 47 44 41 38 36 33 30 27 22 18 16 16 18 20 23 27 32 35 37 37 37 37 37 38 39 40 43 47 52 57 63 68 74 80 86 93 101
33 33 34 34 35 35 35 34 33 32 31 31 30 29 28 28 27 27 28 28 29 30 31 32 32 32 32 33 34 35 36 37 38 38 39 40 41 43 43 43 44 45 45 46 47 48 48 48 48 46 43 40 37 34 31 28 25 22 19 16 17 19 22 24 27 31 34 36 37 37 37 37 38 38 39 41 45 49 54 60 66 71 77 83 90
31 32 33 33 34 34 34 33 32 31 31 30 29 27 27 27 26 27 27 28 29 30 31 32 33 33 33 33 33 34 36 37 38 39 39 40 41 42 43 43 43 43 44 45 46 47 48 48 48 47 45 42 39 35 32 28 25 23 21 17 16 17 19 21 23 26 30 33 36 37 37 37 37 37 38 38 40 43 47 52 57 63 69 75 81
31 32 32 33 33 33 33 32 31 30 30 29 28 27 26 26 26 27 28 29 29 30 31 32 33 33 34 34 35 36 37 38 39 39 40 40 41 41 42 43 43 43 43 44 45 46 47 47 47 47 46 44 41 38 34 31 26 23 21 18 14 13 15 16 18 21 24 28 32 35 37 37 37 36 36 37 38 40 42 45 50 56 61 67 72
31 32 32 32 33 32 32 31 30 29 29 28 28 27 27 27 27 28 28 29 30 30 31 32 33 34 34 35 36 37 38 39 40 41 41 41 41 41 41 42 42 42 42 43 44 45 46 47 47 46 46 45 43 40 37 33 29 24 21 17 13 10 10 11 13 16 19 22 27 32 35 36 37 36 35 35 36 37 39 41 44 49 54 59 64
31 32 32 32 32 32 31 31 30 29 29 28 28 27 27 27 28 28 29 30 31 32 32 33 34 34 35 36 37 38 39 40 41 42 43 43 42 41 41 41 41 42 42 41 42 43 44 46 46 46 46 45 45 43 39 35 31 27 22 18 14 11 8 8 10 12 15 19 23 28 32 35 36 36 35 34 34 35 37 38 40 43 47 52 57
31 31 32 32 32 31 30 30 30 29 29 28 28 27 27 28 28 29 30 31 32 33 34 34 35 35 36 37 38 39 40 40 42 43 44 44 43 42 41 40 40 41 41 40 40 41 42 44 45 45 45 45 45 44 41 37 33 29 25 20 16 13 10 8 9 10 13 16 19 23 28 33 35 36 35 34 33 33 34 36 38 40 43 47 51
31 31 31 31 31 30 29 29 29 28 28 28 28 28 28 29 29 30 31 32 33 34 35 36 36 37 37 37 38 39 40 41 42 43 44 44 44 42 40 39 39 39 40 40 39 38 39 41 42 43 44 44 43 43 42 39 35 31 27 22 18 14 11 9 9 10 11 14 17 20 24 29 33 35 36 35 34 33 33 34 35 37 39 42 45
31 31 30 30 30 29 29 29 28 28 28 28 28 29 30 30 31 32 32 33 34 35 36 37 37 38 38 38 39 40 40 41 43 44 44 45 45 43 41 39 38 38 38 39 39 37 37 38 40 41 42 42 42 42 41 40 36 32 28 24 21 17 14 10 9 9 10 12 14 17 20 25 29 33 35 35 34 33 32 32 33 35 36 38 41
30 29 29 28 28 28 28 28 28 28 28 29 30 31 31 32 32 33 34 34 35 36 37 38 38 38 39 39 39 40 40 41 43 45 45 45 45 44 42 40 38 36 36 38 38 37 36 35 37 38 39 40 41 40 40 39 37 34 30 26 23 19 16 13 10 9 9 10 12 14 17 20 25 29 33 35 35 34 33 33 33 33 34 35 37
28 28 27 27 27 27 27 28 28 29 29 30 31 32 33 33 34 35 35 36 36 37 38 38 39 39 39 39 40 40 40 41 43 45 46 46 46 45 44 41 38 36 35 36 37 37 35 33 34 36 37 38 38 39 39 38 37 35 32 29 25 22 18 15 13 10 9 9 10 12 14 16 20 24 29 32 35 35 35 34 33 33 33 33 34
27 26 26 26 26 26 27 27 29 30 31 31 32 33 34 34 35 36 36 37 37 38 39 39 40 40 40 40 40 40 40 41 43 45 46 47 47 46 45 43 39 36 34 34 35 36 35 32 32 33 34 35 36 36 37 37 37 35 33 31 28 25 21 18 15 12 10 9 8 9 11 13 16 19 23 27 31 34 35 36 35 34 34 33 33
26 25 25 25 25 26 27 28 29 30 31 32 33 33 34 35 36 37 38 38 38 39 39 40 41 41 41 41 40 40 39 40 42 44 46 47 48 48 47 45 42 37 34 33 34 35 34 32 31 31 32 33 34 34 35 35 35 35 33 31 29 27 24 21 18 14 12 10 9 8 8 10 13 15 18 21 25 28 32 35 36 36 36 35 34
24 24 24 25 25 26 27 28 29 30 30 31 32 33 35 36 37 38 39 39 40 40 41 41 42 42 43 42 42 41 40 40 41 44 46 48 49 49 49 47 44 40 36 33 32 33 33 32 31 30 30 30 31 33 33 34 34 34 33 31 29 27 25 23 20 17 14 11 9 8 8 8 10 12 14 17 20 23 26 29 33 35 36 37 37
24 24 24 25 26 27 28 29 30 30 31 32 33 34 35 37 38 39 40 41 42 42 43 43 43 44 44 44 43 42 41 41 42 43 46 48 50 50 50 49 47 43 38 34 32 31 31 31 31 29 28 28 29 31 32 33 33 32 32 31 30 28 26 24 22 19 17 14 11 9 8 8 9 10 12 14 16 19 21 23 26 29 32 34 36
Wind_Direction
289 289 290 291 292 293 293 294 295 296 296 296 297 297 298 298 298 298 297 297 296 296 295 294 293 291 290 288 286 284 282 280 277 275 272 269 266 263 260 257 254 252 250 248 246 245 243 241 239 238 236 235 233 231 230 229 227 226 226 226 225 224 223 222 223 223 222 221 219 218 217 216 216 217 217 217 215 212 213 214 213 213 215 217 217
290 291 292 293 293 294 294 295 296 296 297 298 299 299 299 299 299 299 298 298 297 297 296 294 293 291 289 288 286 284 282 280 278 275 272 270 267 264 262 259 255 253 250 248 247 245 244 242 240 238 237 235 234 232 231 229 228 226 225 225 225 224 223 222 222 222 223 222 220 218 217 216 216 217 218 218 217 214 212 213 213 212 213 216 217
292 292 293 294 294 295 295 296 297 298 299 300 300 300 300 301 301 301 300 299 299 297 296 295 293 292 290 288 286 285 283 281 278 276 273 270 268 265 262 259 257 254 251 249 247 245 244 242 241 239 237 235 234 233 231 230 228 226 225 224 224 224 223 222 221 221 222 222 221 219 218 217 217 218 218 219 218 216 212 212 214 213 213 215 216
292 293 294 295 296 296 297 298 299 300 301 302 302 303 303 304 303 303 303 302 301 300 298 297 295 294 292 290 288 286 284 282 280 277 275 272 269 266 263 260 257 255 252 250 248 246 244 242 241 239 237 236 234 234 232 230 228 226 225 223 223 223 223 222 221 220 221 221 221 220 219 218 218 218 218 219 219 217 214 213 214 214 214 215 215
294 294 295 296 298 299 300 301 302 303 304 305 306 307 307 307 307 307 306 306 304 303 301 299 297 295 293 291 289 287 285 283 281 278 275 273 270 266 263 260 258 255 253 251 248 246 244 242 240 239 238 236 234 233 232 231 228 226 225 223 222 222 222 222 221 220 220 220 221 220 219 219 218 219 219 218 219 219 215 213 214 215 216 216 216
295 296 298 300 302 303 304 305 306 308 309 309 310 310 311 311 311 310 309 307 306 304 302 300 299 297 295 293 291 289 287 285 283 280 277 275 271 268 264 261 258 255 253 251 249 247 245 243 241 239 237 236 235 233 232 231 229 227 225 223 222 221 221 222 221 220 220 219 220 220 220 219 218 218 219 218 218 219 217 213 213 213 214 216 217
298 301 303 304 305 306 308 310 311 312 312 313 314 314 315 314 313 311 310 309 307 306 304 303 301 300 298 296 294 292 290 288 285 283 280 277 274 271 267 263 259 256 253 251 249 247 246 244 241 239 237 236 235 233 232 231 229 227 225 223 222 220 220 221 221 221 220 219 219 219 219 219 218 218 218 218 217 218 217 214 212 210 208 212 217
304 305 306 307 309 311 313 314 314 314 315 316 317 317 316 316 315 314 314 313 312 310 309 307 305 303 302 300 299 297 295 293 290 286 283 280 277 274 270 266 263 258 254 251 249 247 246 244 242 240 238 236 234 233 232 231 229 227 225 223 222 220 219 219 220 220 220 219 218 218 218 219 219 218 218 218 217 217 217 214 211 208 205 207 214
307 308 310 312 314 315 316 316 316 317 318 319 319 319 320 320 320 320 319 318 317 315 313 311 309 307 306 305 304 302 300 297 294 291 288 284 280 277 273 269 266 262 258 253 250 247 245 244 242 241 239 237 235 233 232 231 229 228 226 224 222 220 219 218 219 220 220 219 218 217 217 218 218 218 218 218 217 217 216 215 212 209 206 205 211
310 312 315 316 317 317 317 318 319 320 321 322 323 324 324 325 326 326 325 324 323 321 318 316 313 312 311 310 309 307 304 302 299 297 294 291 287 282 278 273 268 264 260 256 252 249 246 244 242 241 239 237 235 233 232 230 229 228 226 224 222 221 219 218 218 219 219 219 218 217 216 216 217 218 217 218 218 217 216 215 213 209 207 205 208
314 317 318 318 319 319 320 321 322 323 324 326 328 328 329 331 332 332 332 331 330 328 325 323 320 319 318 316 314 312 309 307 305 304 301 298 295 290 284 279 273 267 262 258 254 251 247 245 243 241 240 238 236 234 232 230 229 228 227 225 223 221 220 219 218 218 218 218 218 217 216 216 216 217 217 217 217 217 216 216 214 210 208 206 207
318 319 320 320 320 321 323 324 325 327 329 330 330 332 334 336 338 338 339 338 337 336 333 331 329 327 326 323 321 319 317 315 313 311 309 306 302 297 292 286 279 273 266 261 256 252 249 246 244 242 240 238 237 235 233 231 229 228 227 225 223 221 220 219 218 217 217 218 218 218 217 216 215 215 217 217 217 217 216 216 215 211 208 207 207
320 320 320 321 322 324 326 327 329 331 332 332 333 336 339 341 343 344 345 345 345 343 340 338 336 334 332 330 329 327 324 321 319 317 315 312 307 303 297 292 286 279 272 265 259 254 251 248 245 243 241 239 237 235 234 232 229 228 227 226 224 222 221 220 219 217 217 217 217 218 217 216 215 215 215 217 217 217 216 216 215 212 208 208 207
321 321 321 323 324 327 329 331 333 334 334 334 336 340 343 345 347 349 350 350 350 349 347 344 342 340 338 336 333 330 327 324 322 321 320 317 313 308 302 295 290 284 277 270 263 257 253 250 247 244 242 240 238 236 234 232 230 228 227 226 225 223 221 220 219 218 217 217 217 217 217 216 216 214 214 215 216 217 216 215 215 213 209 207 207
321 321 323 325 327 330 332 334 336 336 336 337 340 343 345 347 350 352 353 354 354 354 353 350 347 344 342 339 335 331 328 325 324 323 323 323 320 315 308 301 293 287 281 274 266 260 255 252 249 246 243 241 239 237 235 233 231 229 227 226 225 224 223 221 219 218 217 217 216 217 217 216 216 215 214 214 215 216 216 216 215 214 210 208 207
322 323 325 327 330 333 335 337 338 338 338 339 341 344 346 348 351 354 355 356 357 357 357 355 352 349 346 342 338 334 331 329 327 326 326 326 326 323 318 310 300 291 284 277 270 263 257 252 250 248 246 243 240 239 237 235 233 231 228 227 225 224 223 222 220 219 218 217 216 216 216 216 216 215 214 214 214 215 216 216 215 214 212 209 207
323 324 327 329 332 335 337 339 339 339 340 341 343 345 347 349 351 353 355 357 358 359 359 358 356 353 350 348 345 342 339 336 334 331 329 329 330 329 326 320 312 301 290 280 272 266 260 255 251 249 247 245 242 240 238 236 235 232 230 228 226 225 224 223 222 220 218 218 217 216 216 216 216 216 215 214 213 214 215 216 215 215 214 211 208
324 326 329 331 334 336 338 340 340 340 341 342 343 345 347 349 351 353 355 356 358 360 1 0 359 357 355 352 350 348 346 343 340 338 335 333 332 332 332 329 323 315 303 289 277 268 263 259 254 249 247 246 244 242 240 238 236 234 232 229 227 226 224 223 222 221 219 218 217 216 216 216 216 216 215 214 213 213 214 215 215 215 214 213 210
326 328 330 332 335 337 339 340 341 341 341 342 344 345 346 349 351 352 354 355 357 359 1 1 1 1 359 357 355 352 350 348 345 342 339 337 336 335 335 333 331 327 318 304 289 275 266 261 258 253 249 246 245 244 242 239 237 235 233 231 228 226 225 224 223 222 221 219 218 217 216 216 216 216 215 215 214 213 213 213 214 215 214 214 212
327 330 332 333 335 338 340 341 341 341 341 342 344 344 346 348 350 352 353 355 356 358 359 1 2 2 2 1 359 356 354 352 349 346 344 342 339 338 337 335 335 334 331 321 307 290 276 266 261 257 253 248 246 245 244 241 238 236 234 232 230 227 226 224 223 222 221 220 219 218 217 216 216 216 216 215 214 214 213 213 213 214 214 214 214
328 331 332 333 336 338 339 340 340 340 341 342 343 344 345 348 350 351 353 354 355 357 358 359 0 2 2 2 2 0 359 357 354 351 349 346 344 341 339 338 337 338 337 333 324 308 291 278 267 261 257 253 248 246 244 243 240 237 235 233 232 229 226 225 224 222 221 221 220 219 217 217 216 216 216 216 215 214 214 213 213 213 214 213 214
329 331 332 334 336 338 339 339 340 340 341 342 343 344 345 347 349 351 352 353 354 356 358 358 359 360 2 3 3 3 2 1 359 357 355 353 349 345 343 342 341 341 340 339 334 325 310 294 280 269 261 256 252 248 245 243 241 239 236 233 233 231 228 226 224 223 221 221 221 220 218 217 216 216 216 216 216 215 214 214 213 213 214 213 213
329 331 332 334 336 337 338 339 339 340 340 341 342 343 344 346 348 350 351 352 354 356 357 358 357 358 360 2 3 4 4 4 3 2 1 359 357 352 350 348 345 344 343 341 339 334 326 312 296 282 271 262 256 251 248 245 242 240 237 234 232 232 231 228 225 224 222 221 220 220 219 218 217 216 216 216 216 216 215 215 214 213 213 213 213
329 331 333 334 335 336 337 338 339 339 339 340 341 342 343 345 347 348 350 352 353 355 357 358 356 357 359 1 3 4 4 4 5 5 5 4 3 1 358 354 350 346 344 343 341 338 334 326 314 299 284 272 262 255 250 247 245 242 238 236 233 232 231 230 227 225 223 222 221 220 220 219 218 217 216 216 216 216 215 215 215 214 214 213 213
329 331 333 334 335 335 336 336 338 338 338 339 340 340 342 344 345 347 349 350 352 354 357 357 356 356 357 359 1 3 4 4 5 6 7 7 6 5 1 357 353 349 345 342 342 340 337 331 323 313 299 284 272 262 254 249 247 244 241 238 235 232 231 230 229 226 224 223 222 220 220 220 219 217 217 216 216 216 216 216 215 215 214 214 214
329 331 332 334 334 334 335 335 336 337 337 338 339 339 341 343 344 346 348 349 351 353 356 356 356 356 356 357 359 1 3 4 5 6 7 7 7 6 4 360 356 352 348 344 342 341 338 333 327 321 311 297 282 271 261 252 247 245 243 240 237 234 231 230 229 228 226 223 222 221 220 219 219 218 217 217 217 217 217 216 216 216 215 215 214
329 330 332 333 333 333 334 334 336 336 337 338 338 339 339 341 342 345 347 348 350 352 353 354 355 356 356 356 357 359 2 3 4 5 7 7 6 6 5 3 360 357 353 349 345 342 339 335 330 325 319 309 295 280 268 258 250 245 244 242 239 236 233 231 229 228 227 225 223 222 221 220 219 219 218 217 217 217 217 217 216 216 216 216 215
329 330 331 332 332 332 333 334 335 336 336 337 338 337 337 339 341 343 345 347 349 350 351 352 354 355 356 355 355 358 1 2 4 5 7 8 7 6 5 4 2 0 357 354 350 345 341 339 335 329 324 317 307 292 277 266 256 248 243 242 240 238 235 232 230 228 227 226 224 222 222 220 219 219 219 218 217 217 217 217 217 217 217 216 216
329 329 330 331 332 332 333 334 335 336 336 336 336 336 336 337 339 341 343 345 347 348 349 351 352 353 354 354 354 356 360 3 4 5 7 8 8 7 6 5 4 2 0 357 354 349 345 343 339 334 329 322 315 304 288 273 263 253 245 241 240 239 237 234 232 229 227 226 225 224 222 221 220 219 219 219 218 217 217 217 218 217 217 217 217
328 329 330 330 331 332 333 334 335 335 335 335 335 335 335 336 337 339 341 343 345 346 348 349 350 350 352 353 354 356 360 4 6 7 8 9 10 9 8 8 6 5 3 1 358 354 349 346 343 339 334 328 321 312 299 282 269 259 250 242 239 238 237 235 233 231 228 226 226 225 223 222 221 220 220 219 219 218 218 218 218 218 218 218 218
328 329 330 330 330 331 333 334 334 334 334 333 333 334 334 335 335 336 338 340 342 345 346 347 347 348 350 352 353 355 359 4 7 9 9 10 10 11 10 9 8 7 6 4 2 358 353 349 347 344 340 335 328 319 308 293 277 265 255 246 239 237 237 236 234 232 230 227 226 225 225 223 222 222 221 220 220 219 219 218 218 218 219 219 218
328 329 330 330 330 331 333 333 333 333 333 332 332 332 333 333 334 335 337 339 341 342 344 345 345 346 348 351 353 355 358 2 6 7 8 8 9 10 10 9 9 8 8 6 4 1 357 353 350 347 345 341 334 327 317 304 287 272 262 252 242 237 236 235 235 233 231 229 226 225 225 225 224 223 222 221 220 220 220 219 219 219 219 219 219
328 329 330 330 331 331 332 333 333 332 332 332 332 331 332 332 333 334 335 338 339 341 342 344 345 346 347 350 352 354 356 359 2 4 5 5 6 7 8 8 8 7 7 7 6 3 0 357 353 349 348 346 341 334 325 314 300 282 268 258 248 240 235 234 234 234 232 230 228 226 225 225 225 224 223 222 222 221 221 220 220 219 219 219 220
328 329 330 330 331 331 332 332 332 332 331 331 331 331 331 332 332 333 335 337 340 341 342 344 344 345 346 348 350 352 354 356 358 360 1 2 2 3 4 5 6 6 6 6 5 4 2 360 356 352 350 348 346 341 332 322 311 295 277 264 254 245 238 235 234 233 232 231 229 228 226 226 225 225 224 224 223 223 222 221 221 221 220 220 220
328 329 329 330 331 331 332 332 333 332 331 331 331 331 331 332 333 334 336 338 341 342 343 343 344 344 345 347 348 349 351 353 355 356 358 359 359 360 1 2 3 4 4 3 4 4 3 1 359 356 352 350 348 345 339 330 318 305 289 272 259 250 243 238 234 233 232 231 229 229 228 227 226 226 226 225 224 224 223 223 222 222 222 221 221
329 330 330 330 331 331 332 333 333 332 332 331 331 332 332 333 334 335 337 340 342 343 343 344 345 345 345 346 347 348 349 351 352 353 354 355 356 357 358 359 360 0 1 1 2 2 2 2 1 359 355 352 349 346 343 336 325 312 298 282 267 256 248 242 237 234 232 230 229 228 229 229 228 227 227 226 226 225 225 224 223 223 223 223 222
331 330 330 330 330 332 333 333 334 333 333 332 333 334 335 335 336 337 338 341 343 344 343 344 345 346 347 347 346 346 347 348 349 350 351 351 352 352 354 356 356 357 358 359 360 0 1 1 1 0 358 355 351 348 344 339 332 321 307 291 276 263 253 246 241 237 233 231 229 228 228 229 230 230 229 228 228 227 226 226 225 224 224 224 224
331 330 330 330 331 333 334 335 335 335 334 335 336 337 336 337 338 339 340 342 344 344 343 344 345 346 347 348 346 345 345 345 346 347 348 348 348 348 350 352 353 354 355 356 357 358 359 0 1 1 359 357 354 350 346 341 335 327 317 301 283 269 258 249 244 240 236 232 230 229 229 229 230 231 231 231 230 229 227 227 226 226 225 224 224
331 330 330 331 332 334 335 336 337 337 337 337 339 339 339 339 340 341 342 343 345 344 343 343 344 346 347 347 346 345 344 344 344 344 345 345 345 345 346 348 350 351 352 353 354 355 356 358 360 0 359 358 356 353 349 344 338 331 324 313 295 276 264 254 247 242 238 235 231 230 229 230 231 232 233 233 233 231 229 227 227 226 226 225 225
331 331 332 332 333 335 336 337 338 339 339 339 341 341 341 341 342 342 343 344 345 345 344 344 345 346 347 347 346 345 345 345 344 344 343 343 343 343 343 345 346 348 349 350 351 353 354 355 357 359 360 358 357 355 353 349 345 339 333 327 312 290 275 262 251 244 240 236 233 230 229 230 231 232 233 234 235 234 232 229 228 227 226 226 226
333 333 333 333 334 335 336 337 338 340 340 341 341 342 342 342 343 344 345 345 346 346 346 346 347 347 348 347 347 346 347 346 346 345 344 343 342 342 342 342 343 344 346 348 350 351 351 352 354 357 359 359 358 357 356 354 351 348 345 342 334 317 296 277 259 247 241 237 233 231 229 230 231 232 233 234 236 236 235 232 230 228 227 226 226
333 333 333 333 334 335 337 338 339 341 342 342 343 343 344 345 346 347 347 347 347 347 347 347 347 348 347 347 346 346 347 347 347 346 345 344 343 341 340 339 339 340 342 346 348 349 349 349 351 354 358 360 360 359 358 358 357 355 354 354 354 346 327 299 272 254 243 237 233 230 229 229 230 232 233 233 235 237 236 235 232 230 228 227 226
333 333 333 333 335 336 338 340 341 343 344 344 345 346 348 349 349 349 349 349 348 347 347 347 347 347 347 346 345 346 346 347 348 347 346 345 344 341 339 337 336 336 338 342 346 348 348 348 348 351 355 358 0 0 359 360 0 0 359 359 1 359 345 319 293 270 254 244 236 231 229 228 229 231 233 233 234 236 237 236 234 232 230 228 227
333 333 334 335 337 339 341 343 345 346 347 347 348 350 350 351 351 350 350 350 349 348 347 347 347 347 347 346 345 345 346 347 348 347 346 345 344 342 339 336 334 333 334 337 342 346 347 346 346 349 352 356 359 0 0 0 1 2 3 2 2 1 354 333 308 288 271 257 246 238 232 229 228 230 232 233 234 235 236 236 235 233 232 230 229
334 335 336 338 340 342 345 347 348 350 350 351 352 352 352 352 352 352 352 351 350 348 347 347 346 346 346 345 345 345 345 346 346 347 346 346 345 343 340 336 333 331 331 333 337 342 345 345 345 346 349 353 357 360 1 0 1 2 4 5 5 2 357 346 324 300 284 271 258 247 239 234 231 230 231 232 234 234 235 235 235 234 233 232 230
336 337 339 341 343 346 348 350 351 353 354 354 354 353 352 352 352 352 352 352 351 349 347 346 346 346 345 345 345 344 345 345 346 346 346 346 345 344 342 338 334 330 329 329 332 337 343 345 344 345 346 350 353 357 360 0 0 2 4 6 7 5 359 353 341 321 297 281 268 257 247 240 235 233 232 232 233 234 235 236 236 235 234 233 232
338 339 342 344 346 349 351 353 354 355 355 354 353 352 352 352 353 353 353 352 351 350 348 347 346 346 345 345 344 344 345 345 345 345 345 346 346 346 345 342 336 330 327 326 328 332 338 343 344 343 344 346 350 354 357 359 0 2 3 5 6 7 3 358 351 341 322 297 278 265 256 247 241 237 235 234 234 235 235 236 236 236 235 234 233
340 341 344 346 349 351 353 354 354 354 353 353 352 353 352 352 352 353 353 353 352 351 349 348 346 346 345 345 345 344 345 345 345 345 346 346 347 347 347 345 340 333 328 325 325 327 334 340 343 342 341 343 346 350 354 357 359 1 3 5 6 6 6 3 357 349 338 322 299 278 263 254 247 242 239 237 236 236 236 236 237 237 237 236 235
342 344 346 348 350 352 353 353 353 352 351 351 352 352 352 352 352 353 353 353 352 352 351 349 348 347 346 346 345 345 344 345 345 346 347 349 349 349 349 348 345 338 331 326 324 325 329 336 340 341 339 340 343 346 350 354 356 358 1 4 6 7 6 5 2 356 347 335 321 301 280 263 253 247 244 241 239 238 238 238 238 239 239 238 237
344 345 346 348 350 350 350 350 350 350 350 351 351 351 351 351 351 351 351 350 350 350 350 350 349 349 348 347 345 345 344 344 345 346 349 351 351 351 350 349 348 344 337 329 325 324 327 331 335 337 337 337 340 343 346 350 353 356 358 1 4 6 7 7 5 1 355 345 332 317 299 280 264 253 248 245 243 242 241 240 241 241 241 240 239
344 346 346 347 347 348 348 348 348 349 350 350 350 350 349 349 349 348 348 347 346 346 347 348 348 348 348 347 346 344 343 343 344 347 349 351 353 353 352 351 349 347 342 335 328 325 325 327 330 332 333 335 337 340 343 345 349 353 355 358 1 3 6 7 7 6 1 355 345 331 314 295 279 265 255 249 246 245 244 244 243 243 243 243 242
Height
10832 10828 10824 10821 10816 10812 10807 10802 10798 10793 10788 10783 10777 10772 10766 10760 10755 10749 10744 10738 10733 10728 10723 10719 10715 10711 10708 10705 10702 10699 10698 10697 10696 10696 10696 10696 10697 10698 10699 10701 10702 10704 10706 10708 10710 10712 10715 10719 10724 10729 10732 10736 10740 10744 10748 10752 10756 10760 10763 10768 10772 10776 10781 10786 10790 10794 10799 10804 10810 10815 10820 10824 10829 10834 10839 10844 10848 10853 10857 10860 10863 10866 10870 10874 10876
10826 10822 10818 10814 10810 10805 10800 10795 10790 10785 10780 10774 10768 10762 10756 10751 10745 10739 10734 10728 10723 10717 10713 10708 10704 10700 10696 10693 10690 10688 10686 10684 10683 10683 10683 10683 10684 10684 10685 10687 10689 10691 10693 10694 10696 10699 10702 10706 10711 10715 10719 10724 10728 10733 10737 10741 10745 10749 10753 10757 10762 10766 10771 10777 10781 10786 10790 10794 10800 10805 10810 10816 10821 10825 10830 10835 10840 10845 10850 10854 10857 10860 10864 10867 10870
10820 10816 10812 10807 10802 10797 10792 10787 10781 10776 10770 10765 10759 10753 10747 10741 10735 10729 10724 10718 10712 10707 10702 10697 10693 10689 10685 10682 10679 10676 10674 10672 10671 10670 10670 10670 10671 10671 10672 10674 10676 10678 10679 10681 10683 10686 10689 10693 10697 10702 10706 10711 10715 10720 10724 10729 10734 10738 10743 10747 10752 10757 10762 10767 10772 10776 10780 10785 10790 10796 10801 10807 10812 10816 10821 10827 10832 10837 10842 10846 10850 10854 10858 10861 10864
10814 10809 10805 10800 10795 10790 10784 10778 10773 10768 10762 10756 10750 10744 10738 10732 10726 10720 10714 10708 10702 10697 10692 10687 10682 10678 10674 10671 10668 10665 10662 10660 10659 10658 10657 10657 10658 10659 10660 10661 10662 10664 10666 10667 10669 10673 10676 10680 10684 10688 10693 10697 10702 10706 10711 10716 10721 10726 10732 10737 10742 10747 10751 10756 10762 10767 10771 10775 10780 10786 10792 10797 10802 10807 10812 10818 10823 10828 10834 10839 10843 10848 10852 10855 10858
10807 10803 10798 10793 10788 10782 10776 10771 10765 10759 10754 10748 10741 10735 10729 10722 10716 10710 10704 10698 10692 10687 10681 10677 10672 10668 10664 10661 10657 10654 10652 10650 10648 10646 10645 10645 10645 10646 10647 10648 10650 10651 10653 10654 10656 10659 10663 10667 10670 10675 10679 10684 10688 10693 10697 10703 10709 10715 10720 10725 10731 10736 10741 10746 10751 10757 10761 10766 10771 10777 10782 10788 10794 10799 10804 10809 10814 10820 10826 10831 10836 10841 10845 10849 10852
10801 10797 10792 10786 10781 10775 10769 10763 10757 10751 10745 10739 10733 10727 10720 10714 10707 10701 10695 10689 10683 10677 10672 10667 10662 10658 10654 10651 10648 10645 10642 10640 10637 10636 10634 10633 10633 10634 10635 10636 10638 10639 10641 10642 10644 10647 10650 10654 10657 10662 10666 10670 10675 10680 10685 10690 10696 10702 10708 10714 10719 10725 10730 10736 10741 10746 10751 10756 10762 10768 10773 10779 10785 10790 10795 10800 10806 10812 10817 10823 10829 10834 10839 10842 10845
10795 10790 10785 10779 10774 10768 10762 10756 10750 10744 10738 10732 10726 10719 10713 10706 10700 10694 10687 10681 10674 10668 10663 10658 10653 10649 10645 10641 10638 10635 10633 10630 10628 10626 10624 10623 10622 10622 10623 10624 10625 10627 10629 10631 10633 10635 10638 10641 10645 10649 10653 10658 10662 10667 10672 10677 10683 10689 10695 10702 10707 10713 10719 10725 10730 10735 10741 10746 10752 10758 10764 10770 10776 10781 10785 10791 10797 10803 10808 10814 10820 10827 10832 10835 10838
10788 10784 10778 10773 10767 10761 10756 10750 10744 10738 10732 10726 10719 10713 10707 10700 10693 10686 10679 10673 10666 10660 10654 10649 10644 10640 10635 10632 10629 10626 10624 10621 10619 10617 10615 10613 10612 10612 10612 10613 10614 10615 10618 10620 10622 10624 10626 10629 10632 10636 10640 10645 10649 10654 10659 10665 10670 10676 10682 10689 10696 10702 10708 10714 10719 10724 10730 10736 10742 10749 10754 10760 10766 10771 10776 10782 10788 10794 10799 10806 10812 10818 10824 10828 10831
10783 10778 10773 10767 10762 10756 10750 10745 10739 10733 10727 10720 10714 10708 10701 10693 10686 10679 10672 10665 10659 10653 10647 10642 10637 10632 10628 10625 10622 10619 10616 10613 10611 10609 10607 10605 10604 10603 10603 10603 10604 10605 10606 10609 10611 10613 10615 10617 10620 10624 10628 10632 10637 10642 10647 10652 10658 10663 10670 10677 10684 10690 10696 10702 10708 10714 10719 10725 10732 10739 10745 10750 10756 10762 10767 10773 10778 10784 10790 10796 10802 10809 10815 10820 10824
10777 10772 10767 10762 10756 10751 10746 10740 10734 10728 10721 10715 10708 10701 10694 10687 10680 10673 10666 10660 10653 10647 10641 10636 10631 10627 10623 10620 10617 10614 10610 10607 10605 10602 10600 10598 10597 10596 10595 10595 10595 10596 10597 10599 10601 10602 10604 10607 10609 10612 10616 10620 10625 10630 10635 10640 10646 10651 10657 10665 10672 10678 10685 10691 10697 10703 10709 10715 10721 10728 10735 10740 10746 10753 10758 10763 10768 10774 10780 10786 10793 10799 10806 10812 10816
10771 10767 10762 10757 10752 10747 10741 10735 10729 10723 10716 10709 10703 10696 10689 10682 10675 10668 10661 10655 10648 10642 10637 10632 10627 10623 10620 10617 10613 10610 10606 10603 10600 10598 10595 10593 10591 10589 10588 10587 10587 10588 10588 10590 10591 10593 10595 10597 10599 10601 10605 10609 10613 10618 10623 10629 10634 10640 10646 10653 10660 10667 10673 10680 10686 10692 10698 10704 10711 10718 10724 10731 10737 10743 10748 10754 10759 10765 10771 10777 10783 10790 10797 10803 10809
10766 10762 10757 10753 10748 10742 10737 10731 10724 10717 10711 10704 10698 10691 10685 10678 10671 10664 10658 10651 10645 10639 10633 10628 10624 10621 10617 10614 10610 10606 10603 10599 10596 10594 10591 10589 10586 10584 10582 10581 10580 10580 10581 10582 10583 10585 10587 10588 10590 10592 10595 10598 10602 10607 10612 10617 10623 10629 10635 10641 10648 10655 10661 10668 10675 10681 10687 10694 10701 10707 10713 10720 10727 10733 10739 10745 10751 10756 10762 10768 10774 10781 10788 10794 10801
10761 10757 10753 10748 10744 10738 10732 10726 10719 10713 10706 10700 10694 10688 10681 10674 10668 10661 10655 10648 10642 10636 10631 10626 10622 10619 10615 10612 10608 10604 10600 10596 10593 10590 10588 10585 10582 10580 10577 10575 10574 10574 10574 10575 10576 10578 10579 10580 10582 10584 10586 10589 10592 10596 10600 10606 10612 10618 10623 10629 10635 10642 10649 10656 10663 10670 10677 10684 10690 10696 10702 10709 10717 10724 10730 10736 10741 10747 10753 10759 10765 10772 10779 10785 10792
10757 10753 10749 10744 10739 10734 10728 10721 10715 10709 10703 10697 10690 10684 10678 10672 10665 10659 10653 10646 10641 10635 10630 10625 10621 10617 10613 10609 10606 10602 10598 10594 10591 10587 10584 10582 10579 10576 10573 10571 10569 10568 10568 10569 10570 10571 10573 10574 10575 10576 10578 10580 10583 10586 10590 10594 10600 10606 10612 10617 10623 10630 10637 10644 10651 10659 10666 10673 10679 10685 10692 10699 10707 10714 10720 10726 10732 10737 10743 10749 10756 10763 10769 10776 10783
10754 10749 10745 10740 10735 10729 10723 10717 10711 10705 10700 10694 10687 10681 10675 10669 10663 10657 10651 10645 10639 10633 10628 10623 10619 10615 10611 10607 10604 10600 10596 10592 10588 10585 10582 10579 10576 10572 10569 10567 10565 10564 10563 10563 10564 10565 10566 10567 10568 10569 10571 10573 10575 10577 10581 10584 10589 10595 10600 10606 10612 10618 10625 10632 10640 10647 10654 10661 10668 10674 10681 10688 10695 10703 10709 10715 10721 10727 10733 10740 10746 10753 10760 10767 10774
10750 10745 10741 10736 10731 10725 10719 10713 10708 10702 10697 10691 10685 10679 10673 10667 10662 10656 10650 10644 10638 10632 10627 10622 10617 10613 10609 10606 10602 10598 10594 10590 10586 10582 10578 10576 10573 10569 10566 10564 10561 10560 10559 10558 10558 10559 10559 10560 10562 10563 10564 10566 10568 10570 10573 10576 10580 10585 10590 10596 10601 10607 10613 10620 10628 10635 10642 10649 10656 10663 10670 10677 10684 10691 10698 10704 10711 10717 10723 10730 10737 10744 10751 10758 10764
10746 10741 10736 10731 10726 10721 10716 10710 10705 10699 10694 10688 10683 10677 10671 10666 10660 10654 10649 10643 10637 10631 10626 10621 10616 10612 10608 10604 10600 10596 10591 10587 10583 10579 10576 10572 10569 10566 10564 10561 10559 10556 10555 10554 10554 10554 10554 10554 10556 10557 10558 10559 10561 10563 10566 10569 10573 10576 10581 10586 10591 10596 10602 10609 10616 10623 10630 10637 10645 10652 10659 10666 10673 10680 10686 10694 10701 10707 10714 10720 10728 10735 10741 10748 10755
10742 10738 10733 10727 10722 10717 10712 10707 10701 10696 10691 10686 10680 10675 10669 10664 10658 10653 10647 10642 10636 10631 10626 10621 10616 10611 10607 10602 10598 10594 10589 10585 10581 10577 10573 10570 10566 10564 10561 10558 10556 10554 10552 10550 10549 10549 10549 10549 10550 10551 10552 10553 10555 10557 10559 10562 10565 10568 10572 10576 10581 10586 10591 10597 10604 10611 10618 10626 10633 10641 10648 10655 10662 10669 10675 10683 10690 10697 10704 10710 10717 10724 10731 10738 10745
10739 10734 10729 10724 10719 10714 10709 10704 10699 10693 10688 10683 10678 10673 10668 10663 10657 10652 10647 10641 10636 10631 10626 10621 10616 10610 10605 10601 10596 10592 10587 10583 10579 10575 10571 10567 10564 10561 10559 10556 10554 10552 10549 10547 10546 10545 10545 10545 10545 10546 10547 10548 10549 10551 10553 10555 10558 10561 10563 10567 10571 10576 10581 10586 10592 10599 10607 10614 10622 10630 10637 10644 10651 10658 10664 10672 10679 10687 10693 10700 10707 10715 10721 10729 10736
10735 10730 10725 10721 10716 10711 10706 10701 10696 10691 10686 10681 10676 10671 10666 10661 10656 10651 10646 10641 10636 10630 10626 10621 10616 10610 10605 10600 10595 10590 10586 10581 10577 10573 10569 10565 10561 10559 10556 10554 10552 10550 10548 10545 10543 10542 10541 10540 10540 10541 10542 10543 10544 10545 10546 10548 10551 10553 10556 10558 10562 10566 10571 10576 10581 10588 10595 10602 10610 10618 10625 10632 10639 10646 10653 10660 10668 10676 10682 10690 10698 10704 10711 10718 10725
10731 10727 10722 10718 10713 10708 10703 10699 10694 10689 10684 10679 10674 10669 10665 10660 10655 10651 10646 10641 10636 10630 10625 10620 10615 10611 10605 10600 10595 10590 10585 10580 10575 10571 10567 10563 10560 10557 10554 10552 10550 10548 10546 10544 10542 10540 10538 10537 10536 10536 10537 10538 10539 10539 10541 10542 10544 10546 10549 10551 10554 10557 10562 10566 10571 10577 10583 10590 10598 10605 10613 10621 10628 10636 10642 10649 10657 10664 10672 10680 10687 10694 10701 10708 10715
10728 10724 10719 10715 10710 10706 10701 10696 10692 10687 10682 10677 10672 10668 10663 10659 10654 10650 10645 10640 10635 10630 10625 10620 10615 10610 10605 10600 10594 10589 10584 10579 10575 10570 10566 10562 10558 10555 10553 10550 10548 10546 10544 10542 10540 10538 10536 10534 10533 10532 10532 10532 10533 10534 10535 10536 10538 10540 10542 10544 10547 10549 10553 10557 10562 10567 10573 10579 10586 10593 10601 10609 10617 10625 10632 10639 10646 10653 10661 10669 10676 10683 10690 10697 10704
10725 10721 10717 10712 10708 10703 10699 10694 10690 10685 10680 10675 10671 10666 10662 10658 10654 10649 10645 10640 10635 10630 10625 10620 10615 10610 10605 10600 10594 10589 10585 10580 10575 10570 10566 10562 10558 10554 10551 10549 10547 10545 10542 10540 10538 10535 10533 10531 10529 10528 10528 10527 10527 10528 10529 10530 10532 10533 10535 10538 10540 10542 10545 10549 10553 10558 10563 10568 10574 10581 10588 10597 10605 10613 10621 10628 10635 10642 10649 10657 10665 10672 10679 10686 10693
10722 10718 10714 10709 10705 10701 10696 10692 10687 10683 10678 10673 10669 10665 10661 10657 10653 10648 10644 10640 10635 10630 10625 10620 10615 10610 10605 10600 10594 10589 10585 10580 10576 10571 10566 10562 10558 10554 10551 10549 10546 10544 10541 10539 10536 10533 10531 10529 10527 10525 10524 10523 10522 10522 10523 10524 10526 10527 10529 10531 10533 10536 10538 10541 10545 10549 10554 10558 10564 10570 10577 10585 10593 10602 10610 10617 10624 10631 10638 10646 10654 10661 10668 10675 10682
10719 10715 10711 10707 10703 10698 10694 10690 10686 10681 10676 10672 10667 10664 10660 10655 10651 10647 10643 10639 10634 10629 10624 10620 10615 10610 10604 10599 10594 10590 10585 10581 10576 10572 10567 10563 10559 10555 10552 10548 10545 10543 10540 10537 10535 10532 10529 10526 10524 10522 10520 10519 10518 10517 10518 10519 10520 10521 10523 10525 10527 10529 10532 10534 10537 10541 10545 10549 10554 10560 10566 10573 10581 10590 10598 10606 10613 10620 10627 10635 10642 10650 10657 10664 10672
10716 10712 10708 10705 10701 10697 10693 10689 10684 10680 10675 10671 10666 10662 10658 10654 10650 10646 10641 10637 10633 10628 10624 10620 10615 10609 10604 10599 10594 10590 10585 10581 10577 10572 10568 10563 10560 10556 10552 10549 10545 10542 10539 10535 10533 10530 10527 10524 10521 10519 10517 10515 10514 10513 10512 10513 10514 10515 10517 10519 10521 10523 10525 10527 10530 10533 10536 10541 10545 10550 10556 10562 10570 10578 10586 10594 10601 10609 10616 10624 10631 10638 10645 10653 10660
10713 10709 10706 10702 10699 10695 10691 10687 10683 10678 10674 10669 10664 10660 10656 10653 10649 10645 10641 10636 10632 10628 10624 10620 10615 10610 10605 10600 10595 10591 10586 10582 10578 10573 10569 10564 10560 10556 10552 10549 10545 10541 10538 10534 10531 10528 10526 10523 10519 10516 10514 10512 10510 10509 10508 10508 10509 10510 10511 10513 10515 10517 10519 10521 10523 10525 10528 10532 10537 10541 10546 10552 10559 10566 10574 10582 10589 10597 10604 10612 10619 10626 10633 10641 10649
10710 10707 10703 10700 10697 10693 10689 10685 10681 10676 10672 10667 10663 10659 10655 10651 10647 10644 10640 10636 10631 10627 10623 10619 10615 10610 10606 10601 10596 10592 10587 10583 10578 10574 10569 10565 10561 10556 10552 10549 10545 10541 10537 10534 10530 10527 10523 10520 10517 10514 10511 10508 10506 10505 10504 10503 10503 10504 10505 10507 10508 10510 10513 10514 10516 10518 10521 10524 10528 10532 10537 10542 10548 10555 10562 10570 10577 10585 10593 10600 10607 10615 10621 10629 10637
10708 10704 10701 10697 10694 10691 10687 10683 10679 10674 10670 10666 10662 10658 10654 10649 10646 10642 10638 10635 10631 10627 10622 10618 10613 10610 10606 10602 10597 10593 10588 10583 10578 10574 10569 10565 10560 10556 10552 10549 10545 10541 10537 10533 10529 10525 10521 10518 10515 10511 10508 10505 10503 10501 10500 10499 10499 10499 10500 10501 10502 10504 10506 10508 10510 10512 10514 10517 10520 10524 10529 10533 10539 10544 10551 10558 10565 10573 10580 10588 10596 10603 10610 10617 10625
10705 10702 10698 10695 10692 10688 10684 10680 10676 10672 10668 10664 10660 10656 10652 10648 10644 10640 10637 10633 10630 10626 10621 10617 10613 10609 10605 10602 10597 10593 10588 10584 10579 10575 10570 10565 10561 10556 10552 10548 10544 10540 10536 10533 10529 10524 10520 10516 10513 10509 10506 10502 10500 10498 10496 10495 10494 10494 10495 10496 10497 10498 10500 10502 10504 10506 10508 10511 10513 10517 10521 10525 10530 10535 10541 10547 10554 10561 10568 10576 10583 10591 10598 10606 10613
10703 10700 10696 10692 10689 10685 10682 10678 10674 10670 10666 10662 10658 10654 10650 10647 10643 10639 10636 10632 10628 10624 10620 10616 10613 10609 10605 10601 10597 10593 10588 10584 10580 10576 10571 10567 10562 10557 10552 10548 10544 10539 10535 10532 10528 10524 10519 10515 10511 10508 10504 10500 10497 10495 10493 10492 10490 10490 10490 10490 10491 10492 10494 10496 10498 10500 10502 10505 10507 10510 10513 10517 10521 10526 10531 10537 10543 10550 10557 10564 10572 10579 10587 10594 10601
10700 10697 10693 10690 10686 10682 10678 10675 10671 10667 10664 10660 10656 10652 10649 10645 10642 10638 10634 10631 10627 10623 10619 10615 10612 10608 10604 10600 10596 10592 10588 10584 10580 10576 10572 10568 10564 10559 10553 10548 10544 10539 10535 10531 10527 10523 10518 10514 10510 10506 10502 10499 10495 10492 10490 10488 10487 10486 10485 10486 10486 10487 10489 10490 10492 10495 10497 10499 10501 10503 10506 10509 10513 10518 10523 10528 10533 10539 10546 10553 10560 10567 10575 10582 10589
10697 10693 10690 10687 10683 10679 10675 10672 10668 10664 10661 10657 10654 10651 10647 10644 10640 10636 10633 10629 10625 10621 10617 10614 10610 10606 10602 10599 10595 10592 10588 10584 10580 10576 10572 10568 10564 10560 10555 10550 10544 10540 10535 10530 10526 10522 10518 10513 10509 10505 10501 10497 10493 10490 10487 10485 10484 10483 10482 10481 10481 10482 10484 10485 10487 10489 10491 10493 10495 10497 10500 10503 10506 10510 10515 10519 10524 10530 10536 10542 10548 10556 10563 10570 10578
10694 10690 10687 10684 10680 10676 10673 10669 10665 10662 10658 10655 10652 10648 10645 10642 10638 10635 10631 10627 10623 10619 10615 10611 10607 10604 10600 10597 10593 10590 10587 10583 10579 10575 10572 10568 10564 10560 10556 10551 10545 10540 10535 10531 10526 10522 10518 10513 10508 10503 10499 10495 10492 10488 10486 10483 10481 10480 10479 10478 10478 10478 10478 10480 10482 10484 10486 10488 10490 10492 10494 10496 10499 10503 10507 10511 10516 10521 10526 10532 10538 10545 10552 10559 10566
10691 10687 10684 10681 10678 10674 10670 10667 10663 10659 10655 10652 10649 10646 10643 10639 10636 10633 10629 10626 10622 10618 10614 10611 10607 10603 10599 10596 10592 10589 10586 10582 10579 10575 10571 10567 10563 10560 10556 10551 10546 10541 10536 10531 10527 10522 10517 10513 10508 10503 10498 10494 10490 10487 10484 10481 10479 10477 10476 10475 10474 10474 10474 10475 10476 10478 10481 10483 10485 10487 10489 10491 10493 10496 10500 10504 10508 10512 10517 10523 10528 10534 10541 10548 10555
10689 10685 10681 10678 10675 10671 10668 10664 10661 10657 10653 10650 10646 10643 10640 10637 10633 10630 10627 10624 10621 10617 10614 10611 10607 10603 10599 10595 10591 10588 10584 10581 10578 10574 10570 10566 10563 10559 10555 10551 10547 10542 10537 10532 10527 10522 10517 10513 10508 10503 10498 10493 10489 10485 10482 10479 10477 10475 10473 10472 10471 10470 10469 10469 10470 10472 10475 10478 10480 10482 10484 10486 10488 10491 10494 10497 10501 10505 10509 10514 10519 10525 10531 10537 10544
10686 10682 10678 10675 10671 10668 10665 10662 10658 10655 10651 10648 10644 10641 10638 10634 10631 10628 10625 10622 10619 10616 10613 10610 10607 10604 10599 10595 10591 10587 10584 10581 10577 10573 10569 10565 10561 10557 10554 10550 10546 10542 10537 10532 10528 10523 10518 10513 10508 10503 10498 10493 10488 10484 10480 10477 10474 10472 10471 10469 10467 10465 10465 10464 10465 10466 10469 10472 10475 10477 10479 10481 10483 10486 10488 10491 10494 10498 10502 10506 10510 10516 10521 10527 10533
10683 10680 10676 10672 10669 10666 10663 10659 10656 10652 10649 10645 10642 10639 10636 10633 10630 10627 10624 10621 10618 10615 10612 10609 10606 10603 10599 10595 10591 10588 10584 10580 10577 10573 10569 10565 10561 10556 10552 10548 10545 10540 10536 10532 10527 10523 10519 10514 10508 10503 10498 10493 10488 10483 10479 10475 10472 10469 10467 10465 10463 10461 10460 10460 10460 10461 10464 10467 10470 10472 10474 10476 10478 10481 10484 10486 10488 10491 10495 10499 10503 10507 10512 10517 10523
10681 10678 10674 10670 10667 10663 10660 10657 10654 10650 10647 10644 10641 10638 10635 10632 10629 10626 10623 10620 10618 10614 10611 10608 10604 10601 10598 10594 10591 10588 10584 10581 10577 10572 10568 10564 10560 10556 10551 10548 10544 10539 10535 10531 10527 10522 10518 10514 10509 10504 10498 10493 10488 10483 10478 10474 10470 10467 10464 10461 10459 10457 10456 10456 10456 10457 10459 10462 10465 10468 10470 10472 10474 10476 10479 10481 10483 10486 10489 10492 10495 10499 10503 10508 10513
10678 10675 10671 10668 10664 10661 10658 10655 10652 10649 10645 10642 10639 10636 10634 10631 10628 10625 10622 10619 10616 10614 10610 10607 10604 10600 10597 10593 10590 10587 10584 10580 10576 10572 10567 10563 10559 10555 10550 10546 10542 10538 10534 10530 10525 10521 10517 10513 10509 10504 10499 10494 10488 10483 10477 10472 10469 10465 10461 10458 10456 10454 10453 10453 10453 10454 10456 10458 10460 10463 10466 10468 10470 10472 10474 10476 10478 10480 10483 10486 10488 10491 10495 10499 10503
10675 10672 10669 10666 10663 10660 10657 10653 10650 10647 10644 10641 10638 10635 10632 10629 10626 10624 10621 10618 10615 10612 10610 10606 10603 10599 10596 10592 10589 10585 10582 10578 10574 10569 10565 10561 10557 10553 10549 10545 10541 10537 10533 10529 10524 10520 10516 10512 10508 10504 10499 10494 10488 10483 10477 10472 10467 10463 10460 10457 10454 10452 10451 10451 10451 10452 10453 10454 10456 10459 10461 10463 10465 10467 10469 10471 10473 10475 10477 10479 10482 10485 10488 10491 10495
10673 10670 10667 10664 10661 10658 10655 10651 10648 10645 10642 10639 10636 10634 10631 10628 10625 10622 10619 10617 10614 10611 10608 10605 10602 10598 10594 10591 10588 10584 10580 10576 10572 10567 10563 10559 10555 10551 10547 10543 10539 10536 10532 10528 10524 10519 10515 10510 10506 10502 10498 10493 10487 10482 10477 10471 10466 10462 10459 10456 10453 10451 10451 10450 10450 10450 10451 10451 10453 10455 10457 10459 10461 10463 10465 10467 10469 10470 10472 10474 10476 10479 10482 10484 10488
10671 10668 10665 10662 10659 10656 10653 10650 10646 10643 10640 10637 10635 10632 10629 10626 10624 10621 10618 10615 10612 10609 10606 10603 10599 10596 10593 10590 10586 10582 10579 10575 10570 10566 10561 10557 10553 10549 10545 10541 10537 10534 10530 10527 10524 10519 10515 10510 10506 10501 10497 10493 10488 10483 10477 10472 10467 10463 10459 10456 10454 10452 10451 10450 10450 10449 10449 10450 10450 10451 10453 10455 10457 10459 10461 10463 10465 10466 10468 10469 10471 10473 10476 10478 10481
10669 10666 10663 10660 10657 10654 10651 10648 10645 10642 10639 10636 10633 10630 10628 10625 10622 10619 10616 10613 10610 10607 10604 10600 10597 10594 10591 10588 10584 10581 10577 10573 10569 10565 10560 10556 10551 10547 10543 10539 10536 10532 10528 10525 10522 10519 10515 10510 10506 10501 10497 10493 10488 10484 10479 10474 10469 10465 10461 10457 10454 10452 10451 10450 10449 10449 10449 10448 10449 10449 10450 10451 10453 10455 10456 10458 10460 10462 10464 10465 10467 10468 10470 10472 10475
10667 10664 10661 10657 10654 10651 10649 10646 10643 10640 10638 10635 10632 10629 10626 10624 10621 10618 10615 10612 10609 10606 10602 10599 10595 10592 10589 10586 10582 10578 10575 10571 10567 10563 10559 10554 10549 10545 10541 10537 10533 10530 10526 10523 10520 10518 10514 10510 10506 10501 10497 10493 10489 10485 10480 10476 10471 10467 10463 10459 10455 10453 10451 10450 10449 10448 10448 10447 10447 10448 10448 10449 10450 10451 10453 10454 10456 10458 10460 10461 10463 10464 10465 10467 10470
10665 10662 10659 10656 10653 10650 10647 10644 10642 10639 10636 10633 10630 10628 10625 10622 10620 10617 10614 10611 10608 10604 10601 10597 10594 10591 10587 10584 10580 10577 10573 10569 10565 10561 10557 10552 10548 10543 10538 10534 10531 10528 10524 10521 10518 10516 10513 10510 10505 10501 10497 10493 10489 10485 10481 10477 10473 10468 10464 10460 10457 10454 10452 10450 10448 10447 10447 10446 10446 10446 10446 10447 10447 10448 10449 10451 10452 10454 10456 10458 10459 10460 10462 10463 10465
10663 10660 10657 10654 10651 10649 10646 10643 10640 10638 10635 10632 10629 10626 10624 10621 10618 10615 10612 10609 10606 10603 10599 10596 10593 10590 10586 10583 10579 10575 10571 10567 10563 10559 10555 10550 10546 10541 10537 10532 10529 10526 10522 10519 10516 10514 10511 10509 10505 10501 10497 10493 10490 10486 10482 10478 10474 10469 10465 10461 10457 10455 10452 10450 10448 10447 10446 10445 10444 10444 10444 10444 10445 10446 10446 10447 10449 10450 10452 10454 10455 10456 10458 10460 10462
10661 10658 10655 10653 10650 10647 10645 10642 10639 10636 10633 10630 10628 10625 10622 10619 10616 10613 10611 10608 10604 10601 10597 10594 10591 10587 10584 10581 10577 10573 10569 10566 10562 10558 10553 10548 10544 10539 10535 10531 10527 10524 10520 10517 10514 10511 10509 10507 10504 10500 10496 10493 10490 10486 10482 10478 10475 10471 10466 10462 10458 10455 10452 10450 10448 10446 10445 10444 10443 10442 10442 10442 10443 10443 10444 10445 10446 10447 10448 10449 10451 10452 10454 10456 10458
10659 10656 10653 10651 10648 10646 10643 10641 10638 10635 10632 10629 10626 10624 10621 10618 10615 10612 10609 10606 10603 10600 10597 10593 10589 10585 10582 10579 10575 10572 10568 10564 10560 10556 10552 10547 10542 10537 10533 10529 10525 10521 10518 10515 10512 10509 10507 10504 10502 10499 10496 10492 10489 10485 10482 10479 10475 10471 10467 10463 10459 10456 10453 10450 10448 10446 10444 10443 10442 10441 10441 10440 10440 10441 10441 10442 10443 10444 10444 10445 10446 10448 10450 10452 10453
10657 10654 10652 10649 10647 10644 10642 10639 10637 10634 10632 10629 10626 10623 10620 10616 10613 10610 10607 10604 10601 10598 10595 10592 10588 10584 10580 10576 10573 10570 10567 10563 10559 10555 10550 10545 10540 10535 10531 10527 10523 10519 10516 10513 10510 10507 10505 10502 10500 10497 10494 10491 10488 10485 10481 10478 10475 10472 10468 10464 10460 10457 10454 10451 10448 10446 10444 10442 10441 10440 10439 10439 10439 10438 10439 10439 10440 10440 10441 10442 10443 10444 10445 10447 10449
10655 10652 10650 10648 10645 10643 10641 10638 10635 10633 10630 10628 10625 10622 10618 10615 10612 10609 10606 10603 10600 10596 10593 10589 10585 10582 10578 10574 10571 10568 10564 10561 10557 10552 10547 10543 10538 10534 10529 10525 10521 10517 10514 10511 10508 10505 10502 10500 10498 10495 10493 10489 10486 10483 10480 10478 10475 10472 10468 10465 10461 10458 10454 10451 10449 10446 10444 10442 10440 10439 10438 10438 10437 10437 10437 10437 10437 10437 10438 10438 10439 10440 10441 10442 10444